Colorado Springs, CO

3:52 PM MDT on August 16, 2017 (GMT -0600)
City Of Colorado Springs Municipal

Weather History for KCOS - February, 2013

Change the Weather History Date:

Tuesday, February 26, 2013

  Actual Average Record
Temperature  
Mean Temperature 23 °F 34 °F  
Max Temperature 32 °F 47 °F 72 °F (1986)
Min Temperature 14 °F 22 °F -5 °F (1962)
Degree Days  
Heating Degree Days 42 31  
Month to date heating degree days 909 858  
Since 1 July heating degree days 4262 4501  
Cooling Degree Days 0 0  
Month to date cooling degree days 0 0  
Year to date cooling degree days 0 0  
Moisture  
Dew Point 15 °F    
Average Humidity 60    
Maximum Humidity 81    
Minimum Humidity 39    
Precipitation  
Precipitation 0.04 in 0.02 in 1.49 in (1987)
Month to date precipitation 0.90 0.31  
Year to date precipitation 1.08 0.63  
Snow  
Snow 0.40 in 0.10 in 14.80 in (1987)
Month to date snowfall 10.6 4.5  
Since 1 July snowfall 20.1 23.6  
Snow Depth 3.00 in    
Sea Level Pressure  
Sea Level Pressure 29.93 in    
Wind  
Wind Speed 12 mph (NNW)    
Max Wind Speed 30 mph    
Max Gust Speed 40 mph    
Visibility 6 miles    
Events Snow    
T = Trace of Precipitation, MM = Missing Value Source: NWS Daily Summary

Daily Weather History Graph

Daily Weather History Graph

Search for Another Location

Airport or City:

Trip Planner

Search our weather history database for the weather conditions in past years. The results will help you decide how hot, cold, wet, or windy it might be!

Date:

Astronomy

Feb. 26, 2013 Rise Set
Actual Time 6:34 AM MST 5:48 PM MST
Civil Twilight 6:08 AM MST 6:15 PM MST
Nautical Twilight 5:37 AM MST 6:46 PM MST
Astronomical Twilight 5:06 AM MST 7:17 PM MST
Moon 7:06 PM MST (2/26) 6:40 AM MST (2/26)
Length of Visible Light 12h 07m
Length of Day
11h 13m
Full, 99% of the Moon is Illuminated
Feb 26
Full
Mar 4
Last Quarter
Mar 11
New
Mar 19
First Quarter
Mar 27
Full

Hourly Weather History & Observations

Time (MST) Temp. Windchill Dew Point Humidity Pressure Visibility Wind Dir Wind Speed Gust Speed Precip Events Conditions
12:54 AM 15.1 °F 6.4 °F 6.1 °F 68% 29.94 in 10.0 mi NNE 5.8 mph - N/A   Clear
1:54 AM 16.0 °F 5.3 °F 6.1 °F 65% 29.89 in 10.0 mi NNE 8.1 mph - N/A   Clear
2:54 AM 21.0 °F 12.4 °F 7.0 °F 55% 29.86 in 10.0 mi ENE 6.9 mph - N/A   Clear
3:54 AM 17.1 °F 4.3 °F 7.0 °F 65% 29.87 in 10.0 mi NNE 11.5 mph - N/A   Clear
4:54 AM 21.2 °F - 10.4 °F 63% 29.74 in 10.0 mi Calm Calm - N/A   Mostly Cloudy
5:54 AM 21.0 °F 13.4 °F 12.0 °F 68% 29.88 in 10.0 mi NNW 5.8 mph - N/A   Mostly Cloudy
6:54 AM 25.0 °F 15.5 °F 12.0 °F 58% 29.87 in 10.0 mi NNE 9.2 mph - N/A   Mostly Cloudy
7:54 AM 28.9 °F 23.9 °F 10.9 °F 47% 29.88 in 10.0 mi NW 4.6 mph - N/A   Scattered Clouds
8:54 AM 32.0 °F 25.6 °F 10.9 °F 42% 29.88 in 10.0 mi NE 6.9 mph - N/A   Overcast
9:54 AM 30.9 °F 20.7 °F 8.1 °F 38% 29.89 in 10.0 mi ENE 13.8 mph 21.9 mph N/A   Overcast
10:54 AM 30.0 °F 20.5 °F 12.0 °F 47% 29.90 in 10.0 mi East 11.5 mph - N/A   Mostly Cloudy
11:54 AM 30.0 °F - 10.0 °F 43% 29.92 in 10.0 mi Calm Calm - N/A   Overcast
12:33 PM 28.4 °F - 15.8 °F 59% 29.77 in 2.0 mi Calm Calm - 0.00 in Snow Light Snow
12:54 PM 27.0 °F - 18.0 °F 69% 29.95 in 2.0 mi Calm Calm - 0.00 in Snow Light Snow
1:21 PM 26.6 °F 20.0 °F 19.4 °F 74% 29.78 in 1.0 mi WNW 5.8 mph - 0.00 in Snow Light Snow
1:31 PM 26.6 °F 20.0 °F 21.2 °F 80% 29.79 in 0.8 mi West 5.8 mph - 0.00 in Snow Light Snow
1:54 PM 26.1 °F 20.5 °F 21.0 °F 81% 29.96 in 0.8 mi WNW 4.6 mph - 0.02 in Snow Light Snow
2:43 PM 26.6 °F 19.1 °F 21.2 °F 80% 29.81 in 2.0 mi NW 6.9 mph - 0.02 in Snow Light Snow
2:50 PM 26.6 °F 20.0 °F 21.2 °F 80% 29.81 in 4.0 mi WNW 5.8 mph - 0.02 in Snow Light Snow
2:54 PM 27.0 °F 18.7 °F 21.0 °F 78% 29.96 in 4.0 mi NW 8.1 mph - 0.02 in Snow Light Snow
3:54 PM 28.9 °F 17.3 °F 19.0 °F 67% 29.99 in 9.0 mi NNW 16.1 mph - 0.00 in   Overcast
4:14 PM 28.4 °F 15.4 °F 19.4 °F 69% 29.84 in 2.0 mi North 19.6 mph 28.8 mph 0.00 in Snow Light Snow
4:25 PM 26.6 °F 12.7 °F 19.4 °F 74% 29.84 in 3.0 mi NNW 20.7 mph 26.5 mph 0.00 in Snow Light Snow
4:54 PM 27.0 °F 14.3 °F 19.0 °F 72% 30.00 in 3.0 mi NNW 17.3 mph 24.2 mph 0.00 in Snow Light Snow
5:10 PM 26.6 °F 13.4 °F 17.6 °F 69% 29.86 in 7.0 mi NNW 18.4 mph 29.9 mph 0.00 in Snow Light Snow
5:54 PM 25.0 °F 10.9 °F 19.0 °F 78% 30.04 in 2.0 mi NNW 19.6 mph 25.3 mph 0.00 in Snow Light Snow
6:10 PM 26.6 °F 11.7 °F 17.6 °F 69% 29.89 in 5.0 mi NNW 24.2 mph 31.1 mph 0.00 in Snow Light Snow
6:54 PM 26.1 °F 11.6 °F 17.1 °F 69% 30.05 in 6.0 mi NNW 21.9 mph 34.5 mph 0.00 in Snow Light Snow
7:31 PM 24.8 °F 9.6 °F 17.6 °F 74% 29.94 in 4.0 mi NNW 23.0 mph 34.5 mph 0.00 in Snow Light Snow
7:54 PM 25.0 °F 9.9 °F 17.1 °F 72% 30.09 in 4.0 mi NNW 23.0 mph 28.8 mph 0.00 in Snow Light Snow
8:29 PM 24.8 °F 11.1 °F 17.6 °F 74% 29.97 in 3.0 mi NNW 18.4 mph 26.5 mph 0.00 in Snow Light Snow
8:54 PM 25.0 °F 11.3 °F 17.1 °F 72% 30.10 in 4.0 mi NNW 18.4 mph 27.6 mph 0.00 in Snow Light Snow
9:43 PM 24.8 °F 10.7 °F 15.8 °F 69% 30.00 in 5.0 mi NNW 19.6 mph 25.3 mph 0.00 in Snow Light Snow
9:54 PM 24.1 °F 9.8 °F 16.0 °F 71% 30.13 in 4.0 mi NNW 19.6 mph 31.1 mph 0.00 in Snow Light Snow
10:54 PM 24.1 °F 9.8 °F 16.0 °F 71% 30.15 in 7.0 mi NNW 19.6 mph 32.2 mph 0.00 in Snow Light Snow
11:48 PM 24.8 °F 10.7 °F 15.8 °F 69% 30.04 in 2.5 mi NNW 19.6 mph 29.9 mph 0.00 in Snow Light Snow
11:54 PM 24.1 °F 8.3 °F 16.0 °F 71% 30.17 in 1.8 mi NNW 24.2 mph 31.1 mph 0.00 in Snow Light Snow